Location: Waco, TX
(31.5480°N, 97.1670°W)
Time: 05:37:37
(UTC-05:00)

ISS - Pass Details

Date: 08 March 2018
Orbit: 403 x 408 km, 51.6° (Epoch: 24 June)

Event Time Altitude Azimuth Distance (km) Brightness Sun altitude
Rises 01:31:20 0° 209° (SSW) 2,337 - -60.7°
Reaches altitude 10° 01:33:29 10° 201° (SSW) 1,478 - -60.5°
Maximum altitude 01:36:36 39° 131° (SE) 639 - -60.1°
Drops below altitude 10° 01:39:44 10° 61° (ENE) 1,482 - -59.8°
Sets 01:41:54 0° 53° (NE) 2,346 - -59.6°
